AAL163 KDFW-MMTL

Flight info

Callsign AAL163
Flight time 2h 14m
Altitude 37000
Route DARTZ9 TNV DCT VUH DCT KELPP A766 KEHLI UA766 VIGTU VIGTU1C
Aircraft B738/M-SDE2E3FGHIRWXY/LB1

Departure

Time 2026-05-06 01:04
Airport Dallas Fort Worth International Airport (KDFW)

Arrival

Time 2026-05-06 03:18
Airport Felipe Carrillo Puerto International Airport Tulum (MMTL)
Time Latitude Longitude Altitude Speed Heading
2026-05-06 00:37 32.89511 -97.04407 597 ft 0 kts 17°
2026-05-06 00:54 32.89500 -97.04412 597 ft 4 kts 17°
2026-05-06 00:54 32.89473 -97.04417 597 ft 4 kts 360°
2026-05-06 00:55 32.89448 -97.04412 597 ft 4 kts 332°
2026-05-06 00:55 32.89431 -97.04393 597 ft 4 kts 286°
2026-05-06 00:55 32.89429 -97.04381 597 ft 1 kts 270°
2026-05-06 00:58 32.89428 -97.04419 588 ft 10 kts 268°
2026-05-06 00:58 32.89428 -97.04529 597 ft 16 kts 270°
2026-05-06 00:58 32.89428 -97.04677 597 ft 19 kts 270°
2026-05-06 00:58 32.89410 -97.04794 597 ft 2 kts 229°
2026-05-06 00:59 32.89379 -97.04789 597 ft 10 kts 167°
2026-05-06 00:59 32.89301 -97.04771 597 ft 12 kts 174°
2026-05-06 00:59 32.89215 -97.04769 597 ft 13 kts 180°
2026-05-06 00:59 32.89102 -97.04770 597 ft 19 kts 180°
2026-05-06 01:00 32.88956 -97.04771 596 ft 22 kts 180°
2026-05-06 01:00 32.88802 -97.04770 596 ft 22 kts 181°
2026-05-06 01:00 32.88653 -97.04771 594 ft 21 kts 180°
2026-05-06 01:00 32.88533 -97.04777 596 ft 14 kts 196°
2026-05-06 01:01 32.88436 -97.04810 595 ft 16 kts 181°
2026-05-06 01:01 32.88310 -97.04807 595 ft 20 kts 179°
2026-05-06 01:01 32.88161 -97.04807 595 ft 22 kts 181°
2026-05-06 01:01 32.88015 -97.04810 595 ft 19 kts 180°
2026-05-06 01:02 32.87920 -97.04830 594 ft 12 kts 232°
2026-05-06 01:02 32.87911 -97.04934 589 ft 14 kts 271°
2026-05-06 01:02 32.87912 -97.05045 589 ft 12 kts 271°
2026-05-06 01:02 32.87928 -97.05089 590 ft 3 kts 340°
2026-05-06 01:03 32.87954 -97.05092 591 ft 8 kts 354°
2026-05-06 01:03 32.88251 -97.05091 594 ft 78 kts
2026-05-06 01:03 32.89023 -97.05086 591 ft 140 kts
2026-05-06 01:03 32.90137 -97.05061 837 ft 172 kts
2026-05-06 01:04 32.91338 -97.05033 1622 ft 172 kts
2026-05-06 01:04 32.92547 -97.05046 2350 ft 180 kts 358°
2026-05-06 01:04 32.93872 -97.05141 2648 ft 205 kts 349°
2026-05-06 01:04 32.95328 -97.05658 2816 ft 230 kts 341°
2026-05-06 01:05 32.96892 -97.06322 3148 ft 247 kts 340°
2026-05-06 01:05 32.98543 -97.07024 3635 ft 258 kts 337°
2026-05-06 01:05 33.00060 -97.08203 4167 ft 266 kts 307°
2026-05-06 01:05 33.00894 -97.10091 5081 ft 255 kts 281°
2026-05-06 01:06 33.01048 -97.12167 6010 ft 251 kts 266°
2026-05-06 01:06 33.00932 -97.14243 6807 ft 252 kts 264°
2026-05-06 01:06 33.00783 -97.16323 7648 ft 252 kts 263°
2026-05-06 01:06 33.00584 -97.18417 8366 ft 258 kts 262°
2026-05-06 01:07 33.00355 -97.20553 9110 ft 262 kts 262°
2026-05-06 01:07 33.00084 -97.22697 9975 ft 260 kts 253°
2026-05-06 01:07 32.99312 -97.24664 10544 ft 273 kts 236°
2026-05-06 01:07 32.97949 -97.26399 10718 ft 299 kts 227°
2026-05-06 01:08 32.96333 -97.28060 10876 ft 324 kts 216°
2026-05-06 01:08 32.94187 -97.29118 11294 ft 344 kts 198°
2026-05-06 01:08 32.91755 -97.29298 11987 ft 354 kts 184°
2026-05-06 01:08 32.89286 -97.29144 12718 ft 356 kts 183°
2026-05-06 01:09 32.86811 -97.28964 13394 ft 358 kts 183°
2026-05-06 01:09 32.84316 -97.28803 14020 ft 360 kts 184°
2026-05-06 01:09 32.81812 -97.28662 14635 ft 361 kts 184°
2026-05-06 01:09 32.79294 -97.28414 15231 ft 370 kts 175°
2026-05-06 01:10 32.76831 -97.27324 15817 ft 390 kts 157°
2026-05-06 01:10 32.74606 -97.25395 16391 ft 400 kts 149°
2026-05-06 01:10 32.72432 -97.23294 16919 ft 405 kts 148°
2026-05-06 01:10 32.70256 -97.21147 17427 ft 409 kts 148°
2026-05-06 01:11 32.68061 -97.18979 17946 ft 412 kts 149°
2026-05-06 01:11 32.65837 -97.16800 18398 ft 415 kts 149°
2026-05-06 01:11 32.63622 -97.14647 18795 ft 419 kts 149°
2026-05-06 01:11 32.61321 -97.12426 19189 ft 424 kts 149°
2026-05-06 01:12 32.59018 -97.10210 19594 ft 428 kts 150°
2026-05-06 01:12 32.56728 -97.08012 19976 ft 432 kts 150°
2026-05-06 01:12 32.54375 -97.05757 20342 ft 437 kts 150°
2026-05-06 01:12 32.51996 -97.03479 20720 ft 441 kts 150°
2026-05-06 01:13 32.49599 -97.01183 21109 ft 445 kts 150°
2026-05-06 01:13 32.47179 -96.98868 21467 ft 449 kts 150°
2026-05-06 01:13 32.44734 -96.96529 21823 ft 453 kts 150°
2026-05-06 01:13 32.42268 -96.94172 22181 ft 457 kts 150°
2026-05-06 01:14 32.37266 -96.89394 22869 ft 466 kts 150°
2026-05-06 01:14 32.34757 -96.86999 23194 ft 470 kts 150°
2026-05-06 01:14 32.32204 -96.84566 23491 ft 474 kts 150°
2026-05-06 01:15 32.29617 -96.82122 23798 ft 473 kts 153°
2026-05-06 01:15 32.26824 -96.80235 24086 ft 453 kts 170°
2026-05-06 01:15 32.23854 -96.79091 24450 ft 448 kts 173°
2026-05-06 01:15 32.20875 -96.77999 24786 ft 449 kts 173°
2026-05-06 01:16 32.17885 -96.76893 25075 ft 452 kts 173°
2026-05-06 01:16 32.14880 -96.75760 25385 ft 454 kts 173°
2026-05-06 01:16 32.11866 -96.74603 25711 ft 456 kts 173°
2026-05-06 01:16 32.09857 -96.73825 25914 ft 457 kts 173°
2026-05-06 01:17 32.06828 -96.72647 26217 ft 459 kts 173°
2026-05-06 01:17 32.03791 -96.71463 26500 ft 461 kts 173°
2026-05-06 01:17 32.00738 -96.70275 26790 ft 463 kts 173°
2026-05-06 01:17 31.97668 -96.69081 27069 ft 464 kts 173°
2026-05-06 01:18 31.94591 -96.67886 27326 ft 466 kts 173°
2026-05-06 01:18 31.91502 -96.66689 27584 ft 468 kts 173°
2026-05-06 01:18 31.88401 -96.65489 27824 ft 469 kts 173°
2026-05-06 01:18 31.85288 -96.64285 28078 ft 471 kts 173°
2026-05-06 01:19 31.82211 -96.63098 28314 ft 473 kts 173°
2026-05-06 01:19 31.79041 -96.61874 28537 ft 474 kts 173°
2026-05-06 01:19 31.75937 -96.60677 28757 ft 476 kts 173°
2026-05-06 01:19 31.72742 -96.59445 28972 ft 478 kts 173°
2026-05-06 01:20 31.69619 -96.58240 29190 ft 479 kts 173°
2026-05-06 01:20 31.66444 -96.57016 29399 ft 481 kts 173°
2026-05-06 01:20 31.63259 -96.55789 29610 ft 482 kts 173°
2026-05-06 01:20 31.60069 -96.54560 29898 ft 482 kts 173°
2026-05-06 01:21 31.56885 -96.53332 30188 ft 480 kts 173°
2026-05-06 01:21 31.53721 -96.52115 30483 ft 478 kts 173°
2026-05-06 01:21 31.50567 -96.50908 30756 ft 477 kts 174°
2026-05-06 01:21 31.47407 -96.49717 31003 ft 476 kts 174°
2026-05-06 01:22 31.44255 -96.48538 31264 ft 475 kts 174°
2026-05-06 01:22 31.41110 -96.47364 31575 ft 473 kts 174°
2026-05-06 01:22 31.37975 -96.46193 31872 ft 472 kts 174°
2026-05-06 01:22 31.34846 -96.45024 32165 ft 471 kts 174°
2026-05-06 01:23 31.31725 -96.43858 32443 ft 470 kts 174°
2026-05-06 01:23 31.28615 -96.42696 32735 ft 469 kts 174°
2026-05-06 01:23 31.25550 -96.41551 33032 ft 467 kts 174°
2026-05-06 01:23 31.22460 -96.40396 33334 ft 466 kts 174°
2026-05-06 01:24 31.19372 -96.39244 33630 ft 465 kts 175°
2026-05-06 01:24 31.16293 -96.38097 33897 ft 464 kts 174°
2026-05-06 01:24 31.13213 -96.36950 34107 ft 464 kts 174°
2026-05-06 01:24 31.10135 -96.35805 34297 ft 464 kts 174°
2026-05-06 01:25 31.07063 -96.34664 34495 ft 464 kts 174°
2026-05-06 01:25 31.03992 -96.33523 34719 ft 463 kts 174°
2026-05-06 01:25 31.00920 -96.32381 34923 ft 463 kts 174°
2026-05-06 01:25 30.97845 -96.31240 35116 ft 463 kts 174°
2026-05-06 01:26 30.94775 -96.30102 35286 ft 463 kts 174°
2026-05-06 01:26 30.91707 -96.28964 35496 ft 463 kts 174°
2026-05-06 01:26 30.88643 -96.27828 35701 ft 462 kts 174°
2026-05-06 01:26 30.85577 -96.26693 35879 ft 462 kts 174°
2026-05-06 01:27 30.82506 -96.25557 36053 ft 462 kts 174°
2026-05-06 01:27 30.79438 -96.24423 36250 ft 462 kts 174°
2026-05-06 01:27 30.76373 -96.23290 36421 ft 462 kts 174°
2026-05-06 01:27 30.73310 -96.22159 36577 ft 462 kts 174°
2026-05-06 01:28 30.70283 -96.21042 36742 ft 462 kts 174°
2026-05-06 01:28 30.67207 -96.19908 36820 ft 462 kts 174°
2026-05-06 01:28 30.61071 -96.17647 36790 ft 462 kts 174°
2026-05-06 01:29 30.54944 -96.15392 36780 ft 461 kts 173°
2026-05-06 01:29 30.48830 -96.13145 36766 ft 461 kts 173°
2026-05-06 01:30 30.42706 -96.10898 36725 ft 461 kts 173°
2026-05-06 01:30 30.36622 -96.08668 36657 ft 461 kts 173°
2026-05-06 01:31 30.30507 -96.06391 36624 ft 466 kts 168°
2026-05-06 01:31 30.27621 -96.04495 36625 ft 491 kts 149°
2026-05-06 01:31 30.25103 -96.01751 36666 ft 500 kts 143°
2026-05-06 01:32 30.20275 -95.95903 36663 ft 503 kts 142°
2026-05-06 01:32 30.15461 -95.90029 36712 ft 502 kts 142°
2026-05-06 01:33 30.10601 -95.84227 36750 ft 502 kts 143°
2026-05-06 01:33 30.05752 -95.78511 36782 ft 502 kts 143°
2026-05-06 01:34 30.00855 -95.72758 36809 ft 501 kts 143°
2026-05-06 01:34 29.95971 -95.67023 36818 ft 501 kts 143°
2026-05-06 01:35 29.91080 -95.61283 36820 ft 501 kts 143°
2026-05-06 01:35 29.86217 -95.55583 36823 ft 500 kts 142°
2026-05-06 01:36 29.81334 -95.49870 36829 ft 500 kts 142°
2026-05-06 01:36 29.76449 -95.44162 36832 ft 500 kts 142°
2026-05-06 01:37 29.71563 -95.38462 36832 ft 499 kts 142°
2026-05-06 01:37 29.66679 -95.32772 36832 ft 499 kts 142°
2026-05-06 01:38 29.61800 -95.27097 36831 ft 499 kts 142°
2026-05-06 01:38 29.56939 -95.21452 36869 ft 499 kts 142°
2026-05-06 01:39 29.52052 -95.15783 36872 ft 499 kts 142°
2026-05-06 01:39 29.47164 -95.10123 36869 ft 499 kts 142°
2026-05-06 01:40 29.42279 -95.04472 36866 ft 499 kts 142°
2026-05-06 01:40 29.37385 -94.98820 36867 ft 499 kts 142°
2026-05-06 01:41 29.32492 -94.93176 36873 ft 499 kts 142°
2026-05-06 01:41 29.27595 -94.87534 36869 ft 499 kts 141°
2026-05-06 01:42 29.23048 -94.81489 36872 ft 505 kts 134°
2026-05-06 01:42 29.18725 -94.75131 36865 ft 506 kts 134°
2026-05-06 01:43 29.14402 -94.68770 36869 ft 505 kts 134°
2026-05-06 01:43 29.10046 -94.62465 36870 ft 505 kts 134°
2026-05-06 01:44 29.05693 -94.56224 36874 ft 504 kts 134°
2026-05-06 01:44 29.01312 -94.49960 36875 ft 504 kts 134°
2026-05-06 01:45 28.96920 -94.43686 36875 ft 504 kts 134°
2026-05-06 01:45 28.92541 -94.37436 36879 ft 504 kts 134°
2026-05-06 01:46 28.88159 -94.31190 36878 ft 504 kts 134°
2026-05-06 01:46 28.83804 -94.24991 36884 ft 503 kts 134°
2026-05-06 01:47 28.79414 -94.18753 36879 ft 503 kts 134°
2026-05-06 01:47 28.75029 -94.12530 36884 ft 503 kts 134°
2026-05-06 01:48 28.70668 -94.06351 36888 ft 503 kts 134°
2026-05-06 01:48 28.66281 -94.00145 36888 ft 503 kts 134°
2026-05-06 01:49 28.61890 -93.93942 36893 ft 502 kts 134°
2026-05-06 01:49 28.57498 -93.87747 36896 ft 502 kts 134°
2026-05-06 01:50 28.53105 -93.81559 36895 ft 501 kts 134°
2026-05-06 01:50 28.48741 -93.75422 36897 ft 501 kts 134°
2026-05-06 01:51 28.44208 -93.69056 36900 ft 500 kts 134°
2026-05-06 01:51 28.39828 -93.62915 36902 ft 500 kts 134°
2026-05-06 01:52 28.36192 -93.57822 36902 ft 499 kts 134°
2026-05-06 01:52 28.31813 -93.51699 36907 ft 499 kts 134°
2026-05-06 01:53 28.27434 -93.45582 36908 ft 498 kts 134°
2026-05-06 01:53 28.23062 -93.39486 36905 ft 497 kts 134°
2026-05-06 01:54 28.18721 -93.33442 36908 ft 497 kts 134°
2026-05-06 01:54 28.14349 -93.27363 36910 ft 497 kts 134°
2026-05-06 01:55 28.09984 -93.21301 36913 ft 496 kts 134°
2026-05-06 01:55 28.05614 -93.15243 36913 ft 496 kts 134°
2026-05-06 01:56 28.01246 -93.09195 36917 ft 496 kts 134°
2026-05-06 01:56 27.96871 -93.03145 36921 ft 496 kts 134°
2026-05-06 01:57 27.92526 -92.97147 36918 ft 496 kts 134°
2026-05-06 01:57 27.88147 -92.91109 36919 ft 496 kts 134°
2026-05-06 01:58 27.83761 -92.85071 36923 ft 496 kts 134°
2026-05-06 01:58 27.79406 -92.79084 36920 ft 496 kts 134°
2026-05-06 01:59 27.75020 -92.73062 36924 ft 496 kts 134°
2026-05-06 01:59 27.70635 -92.67049 36927 ft 496 kts 134°
2026-05-06 02:00 27.66241 -92.61033 36925 ft 496 kts 133°
2026-05-06 02:00 27.61862 -92.55046 36916 ft 496 kts 133°
2026-05-06 02:01 27.57464 -92.49041 36927 ft 496 kts 133°
2026-05-06 02:01 27.53068 -92.43048 36934 ft 496 kts 133°
2026-05-06 02:02 27.48672 -92.37062 36925 ft 496 kts 133°
2026-05-06 02:02 27.44268 -92.31074 36932 ft 495 kts 133°
2026-05-06 02:03 27.39897 -92.25138 36933 ft 495 kts 133°
2026-05-06 02:03 27.35497 -92.19172 36946 ft 495 kts 133°
2026-05-06 02:04 27.31101 -92.13219 36938 ft 494 kts 133°
2026-05-06 02:04 27.26704 -92.07271 36930 ft 494 kts 133°
2026-05-06 02:05 27.22327 -92.01358 36933 ft 494 kts 133°
2026-05-06 02:05 27.17875 -91.95486 36923 ft 491 kts 138°
2026-05-06 02:06 27.12607 -91.90728 36940 ft 483 kts 149°
2026-05-06 02:06 27.07093 -91.86394 36932 ft 483 kts 149°
2026-05-06 02:07 27.01587 -91.82049 36936 ft 484 kts 149°
2026-05-06 02:07 26.96102 -91.77667 36942 ft 484 kts 149°
2026-05-06 02:08 26.90655 -91.73293 36944 ft 485 kts 149°
2026-05-06 02:08 26.85165 -91.68887 36945 ft 485 kts 149°
2026-05-06 02:09 26.79673 -91.64486 36939 ft 485 kts 149°
2026-05-06 02:09 26.74169 -91.60083 36947 ft 486 kts 149°
2026-05-06 02:10 26.68669 -91.55689 36952 ft 486 kts 149°
2026-05-06 02:10 26.63196 -91.51322 36948 ft 486 kts 148°
2026-05-06 02:11 26.57694 -91.46937 36942 ft 486 kts 148°
2026-05-06 02:11 26.52184 -91.42551 36948 ft 485 kts 148°
2026-05-06 02:12 26.46681 -91.38176 36947 ft 485 kts 148°
2026-05-06 02:12 26.41183 -91.33810 36950 ft 485 kts 148°
2026-05-06 02:13 26.35716 -91.29474 36952 ft 484 kts 148°
2026-05-06 02:13 26.30214 -91.25115 36954 ft 484 kts 148°
2026-05-06 02:14 26.24721 -91.20768 36950 ft 484 kts 148°
2026-05-06 02:14 26.19225 -91.16425 36953 ft 484 kts 148°
2026-05-06 02:15 26.13758 -91.12109 36955 ft 484 kts 148°
2026-05-06 02:15 26.08265 -91.07778 36954 ft 484 kts 148°
2026-05-06 02:16 26.02772 -91.03452 36954 ft 484 kts 148°
2026-05-06 02:16 25.97276 -90.99129 36958 ft 484 kts 148°
2026-05-06 02:17 25.91804 -90.94830 36958 ft 484 kts 148°
2026-05-06 02:17 25.86308 -90.90516 36958 ft 484 kts 148°
2026-05-06 02:18 25.80813 -90.86209 36957 ft 484 kts 148°
2026-05-06 02:18 25.75296 -90.81889 36963 ft 484 kts 148°
2026-05-06 02:19 25.69793 -90.77585 36960 ft 484 kts 148°
2026-05-06 02:19 25.64311 -90.73303 36964 ft 484 kts 148°
2026-05-06 02:20 25.56029 -90.66842 36961 ft 484 kts 148°
2026-05-06 02:21 25.50521 -90.62552 36961 ft 484 kts 148°
2026-05-06 02:21 25.45037 -90.58285 36964 ft 484 kts 148°
2026-05-06 02:22 25.39516 -90.53994 36966 ft 484 kts 148°
2026-05-06 02:22 25.34001 -90.49713 36965 ft 484 kts 148°
2026-05-06 02:23 25.28483 -90.45434 36968 ft 484 kts 148°
2026-05-06 02:23 25.22958 -90.41155 36968 ft 485 kts 148°
2026-05-06 02:24 25.17459 -90.36901 36967 ft 485 kts 148°
2026-05-06 02:24 25.11926 -90.32625 36967 ft 485 kts 148°
2026-05-06 02:25 25.06406 -90.28363 36969 ft 485 kts 148°
2026-05-06 02:25 25.00877 -90.24101 36964 ft 485 kts 148°
2026-05-06 02:26 24.95348 -90.19842 36971 ft 485 kts 148°
2026-05-06 02:26 24.89813 -90.15584 36965 ft 485 kts 148°
2026-05-06 02:27 24.84316 -90.11359 36976 ft 485 kts 148°
2026-05-06 02:27 24.78786 -90.07114 36969 ft 485 kts 148°
2026-05-06 02:28 24.73249 -90.02869 36971 ft 485 kts 148°
2026-05-06 02:28 24.67716 -89.98630 36971 ft 485 kts 148°
2026-05-06 02:29 24.62173 -89.94389 36974 ft 485 kts 148°
2026-05-06 02:29 24.56634 -89.90155 36970 ft 485 kts 148°
2026-05-06 02:30 24.51091 -89.85921 36979 ft 485 kts 148°
2026-05-06 02:30 24.45548 -89.81695 36972 ft 485 kts 148°
2026-05-06 02:31 24.40001 -89.77469 36973 ft 485 kts 148°
2026-05-06 02:31 24.34486 -89.73270 36976 ft 485 kts 148°
2026-05-06 02:32 24.28937 -89.69049 36973 ft 485 kts 148°
2026-05-06 02:32 24.23389 -89.64833 36974 ft 485 kts 148°
2026-05-06 02:33 24.17839 -89.60620 36976 ft 485 kts 148°
2026-05-06 02:33 24.15994 -89.59221 36976 ft 485 kts 148°
2026-05-06 02:34 24.06735 -89.52205 36973 ft 485 kts 148°
2026-05-06 02:34 24.01209 -89.48023 36975 ft 485 kts 148°
2026-05-06 02:35 23.95659 -89.43826 36974 ft 485 kts 148°
2026-05-06 02:35 23.90107 -89.39636 36976 ft 484 kts 148°
2026-05-06 02:36 23.84556 -89.35450 36975 ft 484 kts 148°
2026-05-06 02:36 23.79006 -89.31268 36980 ft 484 kts 148°
2026-05-06 02:37 23.73502 -89.27123 36978 ft 483 kts 148°
2026-05-06 02:37 23.67969 -89.22961 36977 ft 483 kts 147°
2026-05-06 02:38 23.62425 -89.18795 36977 ft 483 kts 147°
2026-05-06 02:38 23.57793 -89.15318 36979 ft 483 kts 147°
2026-05-06 02:39 23.52260 -89.11168 36979 ft 483 kts 147°
2026-05-06 02:39 23.46762 -89.07050 36980 ft 483 kts 147°
2026-05-06 02:40 23.41216 -89.02900 36982 ft 482 kts 147°
2026-05-06 02:40 23.35676 -88.98759 36980 ft 482 kts 147°
2026-05-06 02:41 23.30138 -88.94621 36977 ft 483 kts 147°
2026-05-06 02:41 23.24602 -88.90489 36976 ft 483 kts 147°
2026-05-06 02:42 23.19062 -88.86359 36980 ft 483 kts 147°
2026-05-06 02:42 23.13559 -88.82259 36977 ft 483 kts 147°
2026-05-06 02:43 23.08000 -88.78122 36978 ft 483 kts 147°
2026-05-06 02:43 23.02453 -88.74002 36977 ft 483 kts 147°
2026-05-06 02:44 22.96908 -88.69886 36981 ft 483 kts 147°
2026-05-06 02:44 22.91349 -88.65761 36981 ft 483 kts 147°
2026-05-06 02:45 22.85840 -88.61678 36981 ft 483 kts 147°
2026-05-06 02:45 22.80294 -88.57570 36977 ft 483 kts 147°
2026-05-06 02:46 22.74737 -88.53463 36979 ft 483 kts 147°
2026-05-06 02:46 22.69178 -88.49365 36979 ft 483 kts 147°
2026-05-06 02:47 22.63659 -88.45300 36978 ft 483 kts 147°
2026-05-06 02:47 22.58109 -88.41216 36978 ft 483 kts 147°
2026-05-06 02:48 22.52543 -88.37123 36976 ft 483 kts 147°
2026-05-06 02:48 22.46983 -88.33037 36978 ft 483 kts 147°
2026-05-06 02:49 22.41420 -88.28952 36977 ft 483 kts 147°
2026-05-06 02:49 22.35883 -88.24890 36980 ft 484 kts 146°
2026-05-06 02:50 22.30310 -88.20805 36980 ft 484 kts 146°
2026-05-06 02:50 22.24725 -88.16715 36978 ft 484 kts 146°
2026-05-06 02:51 22.19153 -88.12637 36978 ft 484 kts 146°
2026-05-06 02:51 22.13580 -88.08565 36975 ft 484 kts 146°
2026-05-06 02:52 22.08012 -88.04497 36980 ft 483 kts 146°
2026-05-06 02:52 22.05225 -88.02461 36772 ft 487 kts 146°
2026-05-06 02:52 22.02408 -88.00405 36231 ft 489 kts 146°
2026-05-06 02:52 21.99600 -87.98356 35626 ft 487 kts 146°
2026-05-06 02:53 21.96828 -87.96334 34986 ft 488 kts 146°
2026-05-06 02:53 21.94017 -87.94285 34314 ft 489 kts 146°
2026-05-06 02:53 21.91187 -87.92223 33560 ft 491 kts 146°
2026-05-06 02:53 21.88356 -87.90160 32802 ft 491 kts 146°
2026-05-06 02:54 21.85521 -87.88096 32209 ft 489 kts 146°
2026-05-06 02:54 21.82724 -87.86061 31716 ft 484 kts 146°
2026-05-06 02:54 21.79943 -87.84038 31197 ft 480 kts 146°
2026-05-06 02:54 21.77188 -87.82037 30723 ft 475 kts 147°
2026-05-06 02:55 21.74454 -87.80053 30249 ft 471 kts 147°
2026-05-06 02:55 21.71774 -87.78109 29698 ft 467 kts 147°
2026-05-06 02:55 21.69090 -87.76164 29145 ft 463 kts 147°
2026-05-06 02:55 21.66423 -87.74231 28612 ft 459 kts 147°
2026-05-06 02:56 21.63791 -87.72324 28094 ft 454 kts 146°
2026-05-06 02:56 21.61176 -87.70430 27589 ft 450 kts 146°
2026-05-06 02:56 21.58594 -87.68560 27093 ft 446 kts 146°
2026-05-06 02:56 21.56033 -87.66706 26601 ft 442 kts 146°
2026-05-06 02:57 21.53487 -87.64864 26109 ft 439 kts 146°
2026-05-06 02:57 21.50997 -87.63063 25627 ft 436 kts 146°
2026-05-06 02:57 21.48464 -87.61293 25120 ft 433 kts 151°
2026-05-06 02:57 21.45655 -87.60193 24767 ft 427 kts 168°
2026-05-06 02:58 21.42751 -87.59565 24417 ft 422 kts 169°
2026-05-06 02:58 21.39883 -87.58995 24098 ft 419 kts 169°
2026-05-06 02:58 21.37001 -87.58421 23762 ft 423 kts 169°
2026-05-06 02:58 21.34095 -87.57826 23397 ft 426 kts 169°
2026-05-06 02:59 21.31182 -87.57213 23020 ft 423 kts 168°
2026-05-06 02:59 21.28311 -87.56597 22671 ft 419 kts 168°
2026-05-06 02:59 21.25465 -87.55983 22338 ft 415 kts 168°
2026-05-06 02:59 21.22679 -87.55383 22017 ft 412 kts 168°
2026-05-06 03:00 21.19873 -87.54779 21682 ft 410 kts 168°
2026-05-06 03:00 21.17047 -87.54379 21350 ft 411 kts 181°
2026-05-06 03:00 21.14248 -87.54942 21048 ft 409 kts 201°
2026-05-06 03:00 21.11771 -87.56426 20635 ft 408 kts 219°
2026-05-06 03:01 21.09831 -87.58599 20191 ft 403 kts 237°
2026-05-06 03:01 21.08385 -87.61159 19767 ft 400 kts 242°
2026-05-06 03:01 21.07021 -87.63760 19312 ft 400 kts 242°
2026-05-06 03:01 21.05676 -87.66363 18866 ft 399 kts 242°
2026-05-06 03:02 21.04342 -87.68926 18434 ft 399 kts 242°
2026-05-06 03:02 21.02980 -87.71516 17941 ft 398 kts 242°
2026-05-06 03:02 21.01613 -87.74088 17474 ft 396 kts 241°
2026-05-06 03:02 21.00256 -87.76627 17028 ft 388 kts 241°
2026-05-06 03:03 20.98921 -87.79115 16607 ft 384 kts 241°
2026-05-06 03:03 20.97597 -87.81581 16181 ft 380 kts 241°
2026-05-06 03:03 20.96287 -87.84021 15763 ft 377 kts 241°
2026-05-06 03:03 20.94985 -87.86445 15354 ft 373 kts 241°
2026-05-06 03:04 20.93710 -87.88817 14948 ft 370 kts 241°
2026-05-06 03:04 20.92413 -87.91229 14523 ft 368 kts 241°
2026-05-06 03:04 20.91143 -87.93590 14121 ft 366 kts 241°
2026-05-06 03:04 20.89733 -87.95799 13685 ft 365 kts 226°
2026-05-06 03:05 20.87680 -87.97367 13264 ft 363 kts 205°
2026-05-06 03:05 20.85275 -87.98102 12854 ft 359 kts 185°
2026-05-06 03:05 20.82794 -87.98147 12467 ft 355 kts 178°
2026-05-06 03:05 20.80332 -87.98072 12067 ft 352 kts 178°
2026-05-06 03:06 20.77887 -87.97981 11678 ft 350 kts 178°
2026-05-06 03:06 20.75484 -87.97901 11290 ft 341 kts 178°
2026-05-06 03:06 20.73149 -87.97836 10909 ft 331 kts 178°
2026-05-06 03:06 20.70878 -87.97780 10548 ft 321 kts 178°
2026-05-06 03:07 20.68674 -87.97732 10201 ft 312 kts 179°
2026-05-06 03:07 20.66531 -87.97686 9912 ft 302 kts 179°
2026-05-06 03:07 20.64471 -87.97643 9541 ft 298 kts 179°
2026-05-06 03:07 20.62421 -87.97601 9176 ft 291 kts 178°
2026-05-06 03:08 20.60440 -87.97560 8834 ft 284 kts 178°
2026-05-06 03:08 20.58473 -87.97519 8517 ft 282 kts 178°
2026-05-06 03:08 20.56508 -87.97477 8200 ft 282 kts 178°
2026-05-06 03:08 20.54544 -87.97436 7898 ft 282 kts 178°
2026-05-06 03:09 20.52584 -87.97395 7594 ft 282 kts 177°
2026-05-06 03:09 20.50623 -87.97354 7272 ft 281 kts 177°
2026-05-06 03:09 20.48701 -87.97139 6946 ft 274 kts 165°
2026-05-06 03:09 20.46886 -87.96627 6662 ft 268 kts 162°
2026-05-06 03:10 20.45097 -87.96058 6365 ft 269 kts 161°
2026-05-06 03:10 20.43301 -87.95489 6036 ft 269 kts 162°
2026-05-06 03:10 20.41504 -87.94934 5728 ft 269 kts 162°
2026-05-06 03:10 20.39711 -87.94393 5424 ft 265 kts 162°
2026-05-06 03:11 20.37958 -87.93872 5124 ft 257 kts 162°
2026-05-06 03:11 20.36269 -87.93375 4869 ft 245 kts 163°
2026-05-06 03:11 20.34663 -87.92904 4582 ft 233 kts 163°
2026-05-06 03:11 20.33164 -87.92465 4334 ft 220 kts 162°
2026-05-06 03:12 20.31747 -87.91998 4054 ft 206 kts 151°
2026-05-06 03:12 20.30705 -87.91033 3869 ft 193 kts 127°
2026-05-06 03:12 20.30005 -87.89851 3669 ft 186 kts 120°
2026-05-06 03:12 20.29374 -87.88659 3471 ft 183 kts 120°
2026-05-06 03:13 20.28763 -87.87507 3297 ft 174 kts 121°
2026-05-06 03:13 20.28176 -87.86412 3102 ft 166 kts 121°
2026-05-06 03:13 20.27610 -87.85357 2930 ft 163 kts 121°
2026-05-06 03:13 20.27028 -87.84276 2794 ft 175 kts 121°
2026-05-06 03:14 20.26418 -87.83141 2593 ft 175 kts 121°
2026-05-06 03:14 20.25828 -87.82044 2425 ft 165 kts 121°
2026-05-06 03:14 20.25282 -87.81027 2288 ft 154 kts 121°
2026-05-06 03:14 20.24756 -87.80051 2177 ft 151 kts 121°
2026-05-06 03:15 20.24238 -87.79089 2101 ft 150 kts 121°
2026-05-06 03:15 20.23727 -87.78139 1980 ft 145 kts 121°
2026-05-06 03:15 20.23240 -87.77232 1852 ft 138 kts 121°
2026-05-06 03:15 20.22769 -87.76356 1756 ft 138 kts 121°
2026-05-06 03:16 20.22288 -87.75462 1664 ft 140 kts 121°
2026-05-06 03:16 20.21804 -87.74561 1479 ft 139 kts 121°
2026-05-06 03:16 20.21323 -87.73667 1312 ft 139 kts 121°
2026-05-06 03:16 20.20838 -87.72764 1133 ft 141 kts 121°
2026-05-06 03:17 20.20349 -87.71854 959 ft 142 kts 121°
2026-05-06 03:17 20.19859 -87.70942 772 ft 144 kts 119°
2026-05-06 03:17 20.19361 -87.70014 590 ft 147 kts 119°
2026-05-06 03:17 20.18846 -87.69057 404 ft 150 kts 119°
2026-05-06 03:18 20.18332 -87.68100 195 ft 148 kts 118°
2026-05-06 03:18 20.17836 -87.67159 69 ft 138 kts 119°
2026-05-06 03:18 20.17560 -87.66688 70 ft 0 kts 126°
2026-05-06 03:18 20.17559 -87.66688 70 ft 0 kts 126°